TimeCST,TemperatureF,Dew PointF,Humidity,Sea Level PressureIn,VisibilityMPH,Wind Direction,Wind SpeedMPH,Gust SpeedMPH,PrecipitationIn,Events,Conditions,WindDirDegrees,DateUTC
12:42 AM,80.6,75.2,84,29.92,7.0,Calm,Calm,-,N/A,,Scattered Clouds,0,2012-11-16 06:42:00
1:42 AM,78.8,75.2,89,29.92,7.0,Calm,Calm,-,N/A,,Scattered Clouds,0,2012-11-16 07:42:00
2:42 AM,77.0,73.4,89,29.92,7.0,Calm,Calm,-,N/A,,Scattered Clouds,0,2012-11-16 08:42:00
2:45 AM,77,75,93,29.91,6,East,2.2,,,,Clear,100,2012-11-16 08:45:00
3:42 AM,77.0,73.4,89,29.92,7.0,Calm,Calm,-,N/A,,Clear,0,2012-11-16 09:42:00
4:42 AM,77.0,73.4,89,29.92,7.0,Calm,Calm,-,N/A,,Clear,0,2012-11-16 10:42:00
5:45 AM,78,75,88,29.91,6,SSE,2.2,,,,Clear,150,2012-11-16 11:45:00
5:45 AM,77.0,71.6,83,29.91,7.0,Calm,Calm,-,N/A,,Clear,0,2012-11-16 11:45:00
6:45 AM,77.0,71.6,83,29.92,7.0,Calm,Calm,-,N/A,,Clear,0,2012-11-16 12:45:00
7:46 AM,78.8,73.4,83,29.95,6.0,Calm,Calm,-,N/A,,Clear,0,2012-11-16 13:46:00
8:44 AM,80.6,73.4,79,29.97,6.0,Calm,Calm,-,N/A,,Clear,0,2012-11-16 14:44:00
8:50 AM,80,74,76,29.96,12,NE,2.2,,,,,50,2012-11-16 14:50:00
9:45 AM,84.2,75.2,74,29.95,6.0,Calm,Calm,-,N/A,,Clear,0,2012-11-16 15:45:00
10:44 AM,87.8,75.2,66,29.96,6.0,Calm,Calm,-,N/A,,Clear,0,2012-11-16 16:44:00
11:45 AM,89.6,75.2,62,29.91,7.0,SW,6.9,-,N/A,,Clear,230,2012-11-16 17:45:00
11:50 AM,89,73,50,29.92,12,SSW,6.7,,,,,200,2012-11-16 17:50:00
12:47 PM,91.4,77.0,63,29.91,7.0,WSW,11.5,-,N/A,,Clear,240,2012-11-16 18:47:00
1:40 PM,89.6,77.0,66,29.88,8.0,WSW,11.5,-,N/A,,Clear,250,2012-11-16 19:40:00
2:42 PM,89.6,77.0,66,29.88,8.0,SSW,11.5,-,N/A,,Clear,200,2012-11-16 20:42:00
2:50 PM,89,77,60,29.86,12,West,6.7,,,,,270,2012-11-16 20:50:00
3:46 PM,89.6,77.0,66,29.84,8.0,WSW,11.5,-,N/A,,Clear,240,2012-11-16 21:46:00
4:42 PM,87.8,75.2,66,29.85,8.0,WSW,9.2,-,N/A,,Clear,240,2012-11-16 22:42:00
5:43 PM,86.0,73.4,66,29.87,8.0,WSW,5.8,-,N/A,,Partly Cloudy,240,2012-11-16 23:43:00
5:50 PM,86,77,69,29.89,12,West,6.7,,,,Mostly Cloudy,260,2012-11-16 23:50:00
6:44 PM,84.2,77.0,79,29.89,8.0,WSW,4.6,-,N/A,,Scattered Clouds,240,2012-11-17 00:44:00
7:47 PM,84.2,75.2,74,29.92,8.0,Calm,Calm,-,N/A,,Partly Cloudy,0,2012-11-17 01:47:00
8:49 PM,84.2,75.2,74,29.96,8.0,Calm,Calm,-,N/A,,Partly Cloudy,0,2012-11-17 02:49:00
9:00 PM,83,78,81,,6,NW,4.5,,,,,310,2012-11-17 03:00:00
9:43 PM,84.2,77.0,79,29.95,8.0,Calm,Calm,-,N/A,,Scattered Clouds,0,2012-11-17 03:43:00
10:45 PM,82.4,77.0,84,29.96,8.0,Calm,Calm,-,N/A,,Scattered Clouds,0,2012-11-17 04:45:00
11:45 PM,82.4,77.0,84,29.90,8.0,Calm,Calm,-,N/A,,Scattered Clouds,0,2012-11-17 05:45:00
11:50 PM,82,78,86,29.96,6,NE,4.5,,,,Scattered Clouds,50,2012-11-17 05:50:00